Location: Brivio
(45.7333°N, 9.4500°E)
Time: 01:58:31
(UTC+00:00)

Cosmos 1076 Rocket - Pass Details

Date: 18 October 2019
Orbit: 589 x 613 km, 82.5° (Epoch: 18 November)

Event Time Altitude Azimuth Distance (km) Brightness Sun altitude
Rises 18:19:13 0° 353° (N) 2,890 7.2 -19.4°
Reaches altitude 10° 18:21:29 10° 356° (N) 1,979 6.3 -19.8°
Maximum altitude 18:25:50 68° 79° (E) 661 3.4 -20.6°
Enters shadow 18:27:01 45° 145° (SE) 830 3.9 -20.8°
